Regional Weather Roundup
Issued by NWS

Home | Current Version | Previous Version | Graphics & Text | Print | Product List | Glossary Off
Versions: 1 2 3 4 5 6 7 8 9 10 11 12 13 14 15 16 17 18 19 20 21 22 23 24 25 26 27 28 29 30 31 32 33 34 35 36 37 38 39 40 41 42 43 44 45 46 47 48 49 50

000
ASUS43 KMKX 241800
RWRWI

WISCONSIN REGIONAL WEATHER ROUNDUP
NATIONAL WEATHER SERVICE MILWAUKEE/SULLIVAN WI
100 PM CDT TUE APR 24 2018

NOTE: "FAIR" INDICATES FEW OR NO CLOUDS BELOW 12,000 FEET WITH NO
SIGNIFICANT WEATHER AND/OR OBSTRUCTIONS TO VISIBILITY.

WIZ001-002-006>008-014>016-023>028-241900-
NORTHWEST WISCONSIN

CITY           SKY/WX    TMP DP  RH WIND       PRES   REMARKS
SUPERIOR ARPT  CLOUDY    47  29  51 CALM      30.23F
ASHLAND        FAIR      49  30  48 NE13      30.22S
6HR MIN TEMP:  40; 6HR MAX TEMP:  51;

HAYWARD        FAIR      57  32  38 N10G21    30.17F
6HR MIN TEMP:  34; 6HR MAX TEMP:  57;

SIREN          FAIR      59  28  31 N17G23    30.18S
CUMBERLAND     FAIR      55  30  38 N14       30.15F
RICE LAKE      FAIR      60  32  35 N10       30.16S
CHETEK         FAIR      61  35  37 N12G20    30.13F
LADYSMITH      FAIR      62  34  34 N10G16    30.14F
6HR MIN TEMP:  34; 6HR MAX TEMP:  62;

EAU CLAIRE     NOT AVBL
MENOMONIE      FAIR      65  33  30 N13       30.11S
6HR MIN TEMP:  38; 6HR MAX TEMP:  68;

NEW RICHMOND   CLOUDY    59  30  32 NE15G22   30.16S
OSCEOLA        FAIR      62  32  32 N14       30.19S
$$

WIZ003>005-009-010-017-018-241900-
NORTH CENTRAL WISCONSIN

CITY           SKY/WX    TMP DP  RH WIND       PRES   REMARKS
MANITOWISH WTR FAIR      54  30  40 N9        30.13F
ARBOR VITAE    PTSUNNY   57  33  39 N8        30.12F
WOODRUFF       PTSUNNY   57  33  39 N8        30.12F
RHINELANDER    FAIR      62  32  32 N9        30.10S
6HR MIN TEMP:  32; 6HR MAX TEMP:  62;

EAGLE RIVER    FAIR      57  30  35 N14       30.10F
6HR MIN TEMP:  30; 6HR MAX TEMP:  57;

LAND O LAKES   CLOUDY    54  30  40 N8G16     30.13F
6HR MIN TEMP:  30; 6HR MAX TEMP:  55;

PHILLIPS       FAIR      59  33  38 N13G18    30.11F
6HR MIN TEMP:  31; 6HR MAX TEMP:  59;

TOMAHAWK       FAIR      63  32  31 N6        30.09F
MEDFORD        PTSUNNY   65  40  40 N5        30.08S
MERRILL        FAIR      68  37  32 E5        30.07F
$$

WIZ029-030-035-036-043>047-241900-
CENTRAL WISCONSIN

CITY           SKY/WX    TMP DP  RH WIND       PRES   REMARKS
WAUSAU         FAIR      68  31  25 VRB6      30.04F
6HR MIN TEMP:  37; 6HR MAX TEMP:  69;

MOSINEE        NOT AVBL
MARSHFIELD     FAIR      68  34  28 W8        30.06F
6HR MIN TEMP:  39; 6HR MAX TEMP:  68;

STEVENS POINT  FAIR      65  29  26 N3        30.06F
WAUPACA        FAIR      68  27  21 NE5       30.06F
6HR MIN TEMP:  36; 6HR MAX TEMP:  69;

WAUTOMA        FAIR      68  29  23 NW8       30.04F
6HR MIN TEMP:  35; 6HR MAX TEMP:  69;

WISC RAPIDS    FAIR      68  31  25 CALM      30.06F
6HR MIN TEMP:  34; 6HR MAX TEMP:  69;

CAMP DOUGLAS   NOT AVBL
$$

WIZ011>013-019>022-031-037>040-048>050-241900-
NORTHEAST WISCONSIN

CITY           SKY/WX    TMP DP  RH WIND       PRES   REMARKS
ANTIGO         FAIR      64  34  33 CALM      30.07F
SHAWANO        FAIR      67  31  26 SE3       30.05F
6HR MIN TEMP:  34; 6HR MAX TEMP:  67;

OCONTO         FAIR      60  28  29 SE6       30.06F
STURGEON BAY   FAIR      59  22  24 E8        30.07F
6HR MIN TEMP:  42; 6HR MAX TEMP:  60;

GREEN BAY      FAIR      62  34  35 VRB6      30.06F
6HR MIN TEMP:  36; 6HR MAX TEMP:  62;

MANITOWOC      CLOUDY    55  46  71 SE8       30.07F
6HR MIN TEMP:  42; 6HR MAX TEMP:  57;

APPLETON       MOSUNNY   64  28  25 VRB5      30.04F
CLINTONVILLE   CLOUDY    66  26  21 NE3       30.06S
6HR MIN TEMP:  35; 6HR MAX TEMP:  66;

OSHKOSH        FAIR      62  28  27 NE10      30.05F
6HR MIN TEMP:  41; 6HR MAX TEMP:  63;

$$

WIZ032>034-041-042-053>061-241900-
SOUTHWEST WISCONSIN

CITY           SKY/WX    TMP DP  RH WIND       PRES   REMARKS
LA CROSSE      FAIR      71  35  26 W10       30.06F
6HR MIN TEMP:  41; 6HR MAX TEMP:  71;

SPARTA         FAIR      70  33  25 CALM      30.08F
VIROQUA        FAIR      67  36  31 N6        30.07F
6HR MIN TEMP:  46; 6HR MAX TEMP:  67;

BOSCOBEL       FAIR      73  29  19 VRB6      30.05F
6HR MIN TEMP:  34; 6HR MAX TEMP:  74;

PRAIRIE DU CHI FAIR      69  26  20 NW13      30.06F
PLATTEVILLE    FAIR      69  32  25 N9        30.06F
$$

WIZ056-057-062-063-064-067-068-241900-
SOUTH CENTRAL WISCONSIN

CITY           SKY/WX    TMP DP  RH WIND       PRES   REMARKS
REEDSBURG      FAIR      68  32  26 NW8       30.05F
6HR MIN TEMP:  35; 6HR MAX TEMP:  69;

BARABOO/DELLS  FAIR      67  28  22 N7        30.05F
LONE ROCK      NOT AVBL
MINERAL POINT  FAIR      70  27  19 N6        30.06F
MADISON        FAIR      69  30  23 N8        30.04F
6HR MIN TEMP:  36; 6HR MAX TEMP:  69;

MIDDLETON      FAIR      68  29  23 NE9       30.05F
WATERTOWN      FAIR      66  34  30 N7        30.04F
MONROE         FAIR      68  23  18 N10       30.05S
JANESVILLE     MOSUNNY   70  25  18 N14       30.03F
$$

WIZ051-052-058>065-066-070>072-241900-
SOUTHEAST WISCONSIN

CITY           SKY/WX    TMP DP  RH WIND       PRES   REMARKS
MILWAUKEE      FAIR      58  42  55 NE8       30.06F
6HR MIN TEMP:  47; 6HR MAX TEMP:  59;

WAUKESHA       SUNNY     64  34  32 NE6       30.04F
MILWAUKEE/TIMM SUNNY     61  30  31 E6        30.06S
RACINE         FAIR      58  41  53 N9        30.06F
6HR MIN TEMP:  45; 6HR MAX TEMP:  59;

BURLINGTON     FAIR      64  43  46 CALM      30.04F
KENOSHA        FAIR      63  47  55 E8        30.04F
6HR MIN TEMP:  48; 6HR MAX TEMP:  63;

FOND DU LAC    FAIR      62  34  35 N8        30.05F
6HR MIN TEMP:  36; 6HR MAX TEMP:  62;

SHEBOYGAN      FAIR      55  46  71 NE9       30.05F
6HR MIN TEMP:  41; 6HR MAX TEMP:  57;

WEST BEND      FAIR      66  30  26 CALM      30.04F
JUNEAU         FAIR      63  29  27 N7        30.06F
$$

LSZ147-162-241900-
LAKE SUPERIOR

STATION/POSITION TIME  TEMP    WIND        PRES    WAVE
                       AIR SEA DIR/SP/G            HT/PER
                 (UTC) (F)     (DEG/KT/KT) (MB)    (FT/S)
DEVILS ISLAND    1700   43      60/  8/  8 1024.0R
SAXON HARBOR     1730   37     310/  7/  8 1022.7S
$$

LMZ867-665-643>646-241900-
LAKE MICHIGAN

STATION/POSITION TIME  TEMP    WIND        PRES    WAVE
                       AIR SEA DIR/SP/G            HT/PER
                 (UTC) (F)     (DEG/KT/KT) (MB)    (FT/S)
NORTHPORT PIER   1740   41                 1018.3S
KEWAUNEE LAKESHO 1730   45      40/  4/  6 1018.0F
SHEBOYGAN LAKESH 1700   38      20/  7/  8 1018.8S
PORT WASHINGTON  1730   44      80/  2/  3 1019.0F
MILWAUKEE LAKESH 1730   43      60/ 10/ 11   N/A
KENOSHA   LAKESH 1700   43                 1018.3
$$

TC  - TEMPERATURE IN CELSIUS
VSB - VISIBILITY IN STATUTE MILES
WCI - WIND CHILL INDEX
HX  - HEAT INDEX





USA.gov is the U.S. government's official web portal to all federal, state and local government web resources and services.